Погода в Пуэрто-Калеро

Испания     28°55′11″N   13°42′23″W
темп.,
°C
ветер,
м/с
пор.,
м/с
влажн.,
%
обл.,
%
осадки,
мм/ч
давл.,
гПа
погр.,
м
21 июня, пн
пн2101:00+19с388794 0.1 1019460
04:00+19с68890 0.0 1018376
07:00+18с469263 0.1 1018267
10:00+21с788152 0.1 1019670
13:00+21с777237 0.1 1019723
16:00+21с88660 0.0 1018676
19:00+20с99690 0.0 1018716
22:00+19ссв810750 0.0 1019764
22 июня, вт
вт2201:00+18ссв79757 0.0 1020752
04:00+18ссв797712 0.0 1018611
07:00+19ссв787173 0.0 1019963
10:00+20ссв896717 0.0 10201022
13:00+21ссв89612 0.0 10201001
16:00+22с910630 0.0 1019959
19:00+20ссв1011730 0.0 1019843
22:00+19ссв9118520 0.0 1020757
23 июня, ср
ср2301:00+18ссв8118425 0.0 1019733
04:00+18ссв8118417 0.1 1018679
07:00+19ссв91176100 0.1 1018956
10:00+19ссв9117377 0.1 1019939
13:00+21ссв1011675 0.1 1019939
16:00+21ссв1011669 0.0 1018935
19:00+20с1011700 0.0 1017859
22:00+19с1012791 0.0 1018785
24 июня, чт
чт2401:00+18с9117957 0.0 1018749
04:00+19с9107497 0.0 1017953
07:00+18с9107439 0.0 1017902
10:00+20с99668 0.0 1017928
13:00+21с88640 0.0 1018849
16:00+21с88650 0.0 1017827
19:00+20с89720 0.0 1016778
22:00+19с898012 0.0 1017692
25 июня, пт
пт2501:00+19с788210 0.0 1017587
04:00+18с578317 0.0 1016431
07:00+18с56849 0.0 1016358
10:00+20с667319 0.0 1017703
13:00+21с766718 0.0 1017686
16:00+22с76671 0.0 1016654
19:00+21с77740 0.0 1016585
22:00+19с678729 0.0 1017478